Content
SEND FEEDBACK

Daily
Averages
Monthly
Summary
Mexico

LEONA VICARIO, QUINTANA ROO


Home > North America > Mexico > Quintana Roo
Elevation: 26 feet     Latitude: 20 59N     Longitude: 087 12W

WEATHER
 
SELECT A DAY
Number of Records: 163,746;   Date Range: 1/1/95 - 7/30/14
 
SHARE

PRINT THIS DATA

[ ← Previous Day ]
WEATHER ALMANAC - JANUARY 17, 2014
[ Next Day → ]
[ °C ]   °F
Weather ElementAverageHighLow
Temperature65.9 °F77 °F (11:46 am)55.4 °F (3:47 am)
Dewpoint57.4 °F60.8 °F (8:47 am)53.6 °F (1:44 am)
Humidity75.9 %94 % (3:47 am)53 % (9:42 am)
Barometer30.11 in30.17 in (9:43 pm)30.03 in (2:48 am)
Wind Speed4.4 mph9.2 mph (2:45 pm)
Weather ElementAverage
Visibility7 mi
Wind DirectionSSW (193.5 °)

Weather ElementTotal
Precipitation---
Cooling Degree Days1.2 (Base 65)
Growing Degree Days16.2 (Base 50)
Averaged from 23 records on January 17, 2014
WEATHER CONDITIONS BREAKOUT
WIND DIRECTION BREAKOUT
WEATHER BY HOUR - JANUARY 17, 2014
[ °C ]   °F
Local TimeTemperatureDewpointHumidityBarometerVisibilityWind DirectionWind SpeedGust SpeedPrecipitationEventsConditions
1:44 AM57.2 °F53.6 °F88 %30.08 in7.0 miNNW (330°)5.8 mphMostly Cloudy
2:48 AM57.2 °F53.6 °F88 %30.03 in7.0 miNW (310°)5.8 mphScattered Clouds
3:47 AM55.4 °F53.6 °F94 %30.08 in7.0 miNW (310°)5.8 mphPartly Cloudy
4:46 AM55.4 °F53.6 °F94 %30.09 in7.0 miNW (320°)5.8 mphClear
5:45 AM57.2 °F55.4 °F94 %30.06 in7.0 miCalmPartly Cloudy
6:46 AM57.2 °F55.4 °F94 %30.11 in7.0 miCalmScattered Clouds
7:48 AM62.6 °F57.2 °F82 %30.13 in7.0 miCalmMostly Cloudy
8:47 AM69.8 °F60.8 °F73 %30.12 in7.0 miNorth (350°)2.3 mphMostly Cloudy
9:42 AM75.2 °F57.2 °F53 %30.15 in7.0 miNE (50°)6.9 mphMostly Cloudy
10:44 AM75.2 °F57.2 °F53 %30.14 in7.0 miEast (80°)8.1 mphMostly Cloudy
11:46 AM77.0 °F59.0 °F54 %30.10 in7.0 miENE (60°)8.1 mphMostly Cloudy
12:46 PM73.4 °F57.2 °F57 %30.09 in7.0 miEast (90°)5.8 mphMostly Cloudy
1:43 PM73.4 °F59.0 °F61 %30.08 in7.0 miNE (40°)6.9 mphMostly Cloudy
2:45 PM75.2 °F59.0 °F57 %30.06 in7.0 miNE (40°)9.2 mphMostly Cloudy
3:42 PM75.2 °F59.0 °F57 %30.08 in7.0 miNNE (20°)9.2 mphScattered Clouds
4:44 PM71.6 °F57.2 °F60 %30.10 in7.0 miNorth (360°)4.6 mphMostly Cloudy
5:49 PM68.0 °F57.2 °F68 %30.10 in7.0 miNorth (360°)3.5 mphScattered Clouds
6:41 PM66.2 °F59.0 °F78 %30.13 in7.0 miNorth (360°)2.3 mphScattered Clouds
7:42 PM62.6 °F59.0 °F88 %30.16 in7.0 miNW (310°)2.3 mphScattered Clouds
8:41 PM62.6 °F59.0 °F88 %30.13 in7.0 miCalmScattered Clouds
9:43 PM64.4 °F59.0 °F83 %30.17 in7.0 miNorth (350°)3.5 mphMostly Cloudy
10:40 PM62.6 °F59.0 °F88 %30.17 in7.0 miNorth (350°)2.3 mphScattered Clouds
11:51 PM60.8 °F59.0 °F94 %30.11 in7.0 miNorth (360°)2.3 mphScattered Clouds
Hourly data recorded from MMUN, located miles away from Leona Vicario, Quintana Roo







STORIES FROM OUR PARTNERS